GFSNIL_con_3kmhel_000.txt.gz
Helicity
48 45 34 56 81 112 95 71 93 103 117 94 98 84 69 61 59 67 60 72 89 92
64 76 84 90 100 103 86 77 90 107 120 92 84 77 76 59 60 74 70 68 83 97
124 126 139 152 116 111 98 93 104 111 98 84 69 71 78 63 59 61 54 59 72 84
218 194 206 187 143 135 129 116 115 115 99 81 66 62 70 64 59 71 67 63 77 73
268 273 245 211 182 148 138 141 121 111 96 77 65 57 66 62 60 59 58 62 75 72
341 341 316 221 220 173 157 140 106 102 91 75 66 61 56 64 52 63 71 79 94 93
424 414 357 325 208 200 139 136 101 92 72 59 64 60 53 62 56 65 81 89 92 100
505 493 535 443 151 166 126 109 100 89 60 49 69 53 58 61 52 55 93 105 111 106
551 716 749 436 70 4 88 112 111 88 73 70 75 71 72 75 90 102 132 127 105 115
577 586 583 312 125 0 100 106 101 105 82 73 86 104 93 69 110 125 155 162 139 145
486 528 425 297 278 -14 63 83 97 80 83 90 89 125 82 77 114 141 154 148 159 165
451 347 417 227 167 30 -7 41 72 52 75 101 88 115 121 132 122 138 132 157 169 164
342 261 206 179 128 59 22 29 40 71 89 74 50 31 135 103 131 134 149 156 142 127
285 228 182 229 192 226 143 86 90 102 87 270 121 -36 44 82 117 133 153 133 122 136

GFSNIL_con_3kmhel_003.txt.gz
Helicity
-29 -30 -16 3 16 27 42 73 94 94 96 108 92 88 73 58 46 49 50 37 36 49
-24 -15 -3 29 47 50 70 98 116 109 109 105 111 94 86 68 58 60 62 50 52 61
19 16 27 74 85 57 85 104 129 132 109 108 106 94 81 67 56 56 60 63 65 64
84 56 45 62 192 128 82 173 133 139 110 107 95 93 72 49 34 34 33 49 54 50
147 179 169 177 130 185 141 74 136 123 111 110 89 76 62 37 20 26 23 41 62 59
181 232 240 387 277 171 171 103 82 106 115 115 98 76 56 40 14 11 18 34 40 52
269 281 392 433 352 356 323 171 80 99 92 104 98 68 52 47 33 21 26 43 57 71
291 330 383 527 727 721 948 351 -33 26 92 111 91 68 60 57 53 52 42 52 69 67
232 364 420 501 645 759 493 107 -2 -8 -8 89 85 69 76 72 72 87 94 66 76 96
243 307 380 443 573 653 427 340 103 -15 32 100 76 77 89 98 100 111 125 130 111 121
190 214 253 341 459 377 240 272 61 -4 33 47 48 69 102 95 95 72 102 95 94 138
218 239 255 287 294 203 171 138 100 12 37 36 58 124 121 120 129 73 59 92 114 147
167 150 174 181 184 163 136 142 187 124 19 28 59 136 169 140 246 122 77 101 137 166
85 110 128 186 173 171 199 204 190 100 61 94 56 75 99 207 184 195 85 95 139 163

GFSNIL_con_3kmhel_006.txt.gz
Helicity
-68 -72 -60 -46 -44 -2 5 29 44 52 59 50 72 61 72 54 18 36 25 19 15 12
-71 -51 -41 -37 -2 17 27 49 69 81 76 67 66 70 75 33 54 42 40 36 26 13
-26 -26 -18 1 44 55 72 57 90 78 83 113 89 72 69 48 61 48 42 38 32 20
29 42 35 43 54 57 147 92 79 67 100 93 95 81 71 40 43 56 45 25 18 17
80 96 109 82 74 202 108 148 121 89 72 54 58 85 73 61 47 50 40 33 19 23
115 167 172 142 144 259 171 184 206 420 383 170 90 79 67 62 56 51 31 22 27 20
138 147 189 195 341 308 277 407 522 582 579 381 -25 42 49 62 60 56 47 32 28 36
132 164 221 252 333 448 512 553 557 546 508 323 102 77 56 68 69 64 66 60 50 56
125 160 193 248 247 386 615 741 747 609 462 239 251 67 66 64 69 68 65 84 78 94
130 136 151 144 186 314 466 560 435 392 308 189 143 57 66 70 48 57 96 111 117 111
79 92 97 133 129 177 270 356 306 244 175 91 101 76 108 112 73 53 103 154 183 153
68 59 67 104 105 117 168 204 182 143 87 67 84 117 138 129 89 90 112 127 144 177
28 16 47 74 121 144 95 136 132 76 78 107 104 133 160 141 100 141 149 131 133 234
-17 18 64 95 187 117 123 129 85 79 75 125 112 82 127 114 104 133 156 125 134 196

GFSNIL_con_3kmhel_009.txt.gz
Helicity
1 -33 -35 -40 -53 -23 -13 24 122 83 77 43 76 57 75 66 35 40 29 18 8 9
10 -41 -26 -35 -5 -21 20 55 126 90 66 76 69 69 72 47 84 47 43 19 26 -4
13 -4 -38 1 13 29 63 47 179 132 96 122 118 157 100 52 79 68 37 22 28 17
54 49 40 33 61 72 67 140 160 187 155 176 119 136 262 43 43 105 72 36 30 23
107 105 112 111 132 116 158 195 169 188 190 249 209 272 254 100 63 83 81 57 49 28
110 145 164 195 190 209 193 255 186 240 266 375 222 208 156 230 140 70 67 63 52 46
127 144 185 222 255 251 327 357 333 371 382 452 337 316 136 148 207 73 65 74 58 59
147 119 151 199 277 299 341 339 403 460 528 543 454 408 283 196 270 106 73 79 82 66
179 156 187 232 281 301 263 247 320 466 545 549 403 314 313 227 224 95 117 124 97 78
233 252 237 229 227 290 250 220 336 468 484 464 405 353 224 182 184 101 106 100 101 90
239 238 215 208 226 220 143 168 216 281 396 366 200 196 213 198 139 99 99 95 111 118
151 148 122 113 93 92 112 159 214 225 349 233 140 174 199 206 144 105 98 87 93 105
103 102 125 87 79 102 123 161 191 156 189 137 111 159 172 139 133 102 126 120 125 141
135 105 69 73 97 130 155 209 175 144 122 91 96 110 138 154 126 39 118 130 132 136

GFSNIL_con_3kmhel_015.txt.gz
Helicity
140 43 -13 -29 30 107 108 86 128 157 171 124 90 85 73 88 71 29 55 113 133 133
126 72 16 -39 -26 37 68 83 122 188 204 161 100 111 128 134 117 73 29 53 95 138
124 82 29 -2 -13 42 46 99 168 222 227 208 146 168 177 172 115 121 49 69 96 104
99 75 46 0 7 62 90 166 205 262 292 261 231 212 236 214 211 161 110 106 102 82
99 63 56 46 36 73 126 193 271 314 356 313 285 283 328 281 254 226 150 118 126 126
100 77 76 84 94 113 144 214 334 409 423 437 389 361 380 357 301 263 180 157 119 113
136 118 118 117 121 166 191 250 333 414 462 449 452 425 418 407 337 315 250 180 148 145
152 113 99 108 124 136 191 257 342 417 454 489 488 461 468 426 343 334 282 214 178 159
127 124 112 125 151 180 186 232 330 381 420 431 424 404 463 468 408 335 250 227 184 173
144 145 152 169 181 203 221 226 272 281 352 371 365 378 336 378 376 352 305 258 205 148
203 158 186 214 214 191 231 233 249 276 349 323 380 411 326 250 304 307 274 246 213 193
270 212 237 266 237 250 287 272 301 335 320 361 389 357 301 294 264 243 196 177 188 203
308 279 327 339 329 419 391 370 310 330 286 307 280 231 178 195 174 132 119 114 129 159
327 380 399 476 513 471 333 322 274 219 233 242 191 187 143 144 147 119 144 123 123 122

GFSNIL_con_3kmhel_021.txt.gz
Helicity
228 229 180 135 84 41 16 -14 -4 49 72 80 73 64 64 86 93 92 73 62 64 75
239 229 195 149 92 44 25 -15 -17 49 83 89 86 87 93 100 106 120 113 90 72 71
268 232 225 148 98 66 8 -27 -25 33 69 73 104 104 110 111 106 135 120 135 137 109
269 222 220 132 97 85 38 -11 -12 26 83 96 109 120 127 122 137 146 145 151 160 145
308 233 188 131 68 74 42 28 17 18 55 94 113 133 154 154 158 156 157 150 172 167
258 253 183 121 72 65 39 26 40 48 71 110 132 155 166 174 189 180 170 191 204 173
261 238 181 127 71 54 68 75 67 104 116 130 161 186 195 233 239 220 213 231 205 179
277 204 167 99 72 74 70 76 129 161 157 180 190 217 247 276 292 262 242 288 215 155
299 218 166 128 85 96 110 113 179 202 230 253 253 245 272 316 320 296 309 321 200 153
318 246 193 160 144 116 133 189 196 203 240 251 232 240 290 314 324 342 338 264 224 153
310 269 241 192 167 137 161 192 218 229 236 202 173 213 252 265 289 279 260 228 205 192
329 267 289 239 203 179 156 177 219 238 206 157 158 156 178 256 245 243 212 180 145 163
377 336 311 293 263 235 200 164 236 207 177 160 190 156 167 247 248 221 204 157 165 140
372 368 332 306 319 312 285 231 194 193 194 194 181 122 209 313 238 185 174 190 144 99

GFSNIL_con_3kmhel_024.txt.gz
Helicity
246 203 150 125 118 89 84 25 -26 -37 -12 26 39 20 25 43 49 62 63 76 64 55
283 245 181 150 150 108 82 26 -19 -33 -9 25 47 45 40 43 54 70 75 75 93 79
339 310 255 213 157 132 95 38 -35 -40 -25 18 42 58 65 46 55 89 88 91 118 124
285 292 288 239 170 151 133 65 -14 -26 -14 -3 44 69 88 70 78 102 98 99 121 123
387 343 349 263 176 160 139 93 24 11 14 7 39 91 108 103 104 109 115 119 149 124
350 364 325 292 192 175 147 102 56 40 21 27 44 105 113 132 149 137 139 153 173 161
350 378 338 325 233 170 160 134 68 44 64 63 55 94 134 157 175 160 133 152 188 168
309 299 276 254 235 174 144 120 106 98 86 93 85 103 160 178 196 190 157 173 214 177
295 313 265 256 247 188 138 129 110 85 96 106 93 101 175 203 209 201 204 224 227 213
334 337 291 275 245 216 175 180 136 103 112 100 105 151 203 227 233 201 227 248 253 240
333 330 308 300 248 200 204 192 181 157 152 139 144 191 213 246 224 201 228 227 221 184
346 364 372 328 278 241 231 219 189 198 204 174 167 213 238 257 226 208 200 224 211 195
397 378 363 329 303 303 277 265 275 216 194 165 174 219 234 250 260 211 211 228 194 206
340 329 349 368 375 332 327 304 276 230 203 176 169 178 215 258 244 212 203 182 217 197

GFSNIL_con_3kmhel_027.txt.gz
Helicity
94 88 88 73 50 36 16 15 11 -36 -60 -60 -39 -19 -17 -21 -7 20 29 44 41 38
138 120 101 104 102 57 27 -7 -4 -28 -46 -57 -46 -14 1 -6 17 31 46 57 63 56
155 163 150 150 126 96 86 37 6 -30 -45 -61 -51 -16 5 4 24 53 59 64 83 74
124 109 125 127 126 112 126 94 47 -19 -43 -50 -42 -19 -5 12 37 63 77 86 89 81
188 183 187 197 164 138 141 133 102 40 -16 -35 -33 -19 -9 26 42 65 73 79 93 81
195 206 219 200 193 157 147 131 106 68 9 -18 -26 1 1 15 44 68 73 95 118 106
229 239 259 227 185 196 189 143 112 106 55 22 -6 6 23 26 40 59 77 94 113 129
234 234 243 208 172 158 169 179 146 127 78 51 16 7 31 54 64 75 76 94 114 127
217 235 253 230 219 190 168 148 126 121 109 74 49 42 90 117 92 88 85 109 109 109
251 260 243 236 243 211 195 172 160 134 143 83 49 107 167 155 129 106 85 106 113 137
259 239 243 242 235 250 261 217 189 168 150 129 68 140 202 186 133 140 109 112 132 154
245 251 272 279 244 239 275 280 216 183 154 141 91 172 214 228 122 126 142 139 132 170
278 306 339 384 292 253 249 286 284 246 203 146 112 200 236 238 132 112 142 161 143 168
209 256 271 283 236 170 147 148 288 254 314 240 204 164 230 237 208 211 189 236 210 167

GFSNIL_con_3kmhel_030.txt.gz
Helicity
18 1 -6 14 2 21 11 16 8 10 -40 -45 -57 -67 -58 -51 -24 6 22 35 23 16
53 38 18 -0 41 17 24 12 18 8 -26 -42 -53 -72 -56 -54 -24 -2 22 37 42 35
95 98 72 85 56 39 46 37 33 15 -14 -25 -57 -58 -45 -47 -27 -4 15 29 62 57
70 67 61 80 87 71 57 72 52 69 11 -7 -18 -25 -37 -47 -25 2 18 33 67 75
165 118 76 80 70 84 83 79 91 78 58 10 -7 -14 -27 -35 -22 12 37 54 68 80
93 95 98 87 61 74 96 95 62 63 86 50 21 16 1 -24 -14 10 25 47 78 86
118 137 140 145 115 99 113 107 96 97 102 94 44 28 20 -3 -5 15 22 46 77 101
105 125 133 149 124 109 119 128 135 118 105 104 74 23 38 35 24 38 38 48 83 111
83 100 130 163 140 122 138 163 168 161 146 135 100 60 65 75 62 76 82 83 112 123
114 105 127 168 173 145 172 179 194 192 175 181 167 153 143 154 89 106 116 111 134 154
74 83 105 143 185 171 190 186 184 191 186 178 156 193 234 196 121 134 143 146 146 182
82 59 77 136 176 186 175 172 162 110 114 119 95 172 281 289 162 90 147 182 190 182
111 130 120 139 133 150 143 141 142 170 162 127 83 98 165 275 172 107 131 144 195 224
133 162 173 183 176 207 192 153 170 169 199 196 186 148 182 231 222 226 217 209 222 189

GFSNIL_con_3kmhel_033.txt.gz
Helicity
20 -10 -11 2 10 20 19 21 29 130 70 -1 -42 -44 -38 -35 -21 0 12 15 8 6
43 14 12 8 29 43 21 -1 79 119 65 15 -36 -43 -32 -42 -7 -17 11 24 23 19
106 68 34 45 45 57 37 27 78 123 88 31 -1 -21 -21 -31 -29 10 18 17 66 38
124 96 71 77 93 73 81 89 35 125 108 74 35 21 7 -28 -6 37 36 31 76 77
178 133 108 90 92 93 100 114 129 118 146 102 57 44 41 18 5 62 49 61 78 104
167 181 172 147 119 117 114 114 105 115 147 153 116 90 75 57 29 51 78 69 93 108
97 142 172 202 190 129 126 122 110 110 127 154 140 131 108 90 68 57 79 99 96 116
53 54 85 137 176 162 141 128 125 129 151 143 135 118 140 94 72 77 90 114 130 123
66 64 62 97 153 161 163 172 166 190 205 212 161 121 145 148 102 81 96 117 176 170
103 103 96 92 133 164 203 211 213 201 218 215 218 228 238 216 166 115 112 130 169 212
140 159 154 113 110 133 142 184 215 206 202 226 246 224 263 316 237 183 113 117 156 205
144 162 177 165 162 168 193 192 214 228 243 246 248 296 268 295 247 223 190 146 132 134
165 183 185 163 180 188 157 163 156 165 209 233 233 302 396 383 259 246 227 225 205 224
178 198 164 139 129 141 154 140 151 153 171 179 221 280 403 465 378 338 350 306 291 343

GFSNIL_con_3kmhel_036.txt.gz
Helicity
36 22 -29 -31 21 -8 32 83 124 122 149 126 41 -16 -31 10 -19 4 -3 -10 -18 -23
71 48 38 6 -8 34 -5 16 95 198 188 147 95 30 -23 -12 9 -13 40 15 1 -12
123 136 81 64 15 16 51 -6 64 236 192 166 108 74 30 -2 -26 14 31 22 45 41
124 114 111 83 68 43 40 47 -22 158 208 176 141 99 72 40 18 37 46 56 39 101
108 117 104 93 81 74 73 57 48 110 198 230 185 143 119 102 47 55 111 108 90 118
113 123 121 119 120 117 123 113 103 100 204 238 206 170 141 113 81 33 109 120 114 127
106 129 135 131 123 127 158 165 156 161 197 248 240 194 176 146 107 55 21 104 118 139
117 117 107 116 130 141 153 202 213 206 188 221 238 214 196 188 185 160 98 71 158 171
163 126 106 96 113 123 124 127 143 167 188 212 248 271 273 237 198 195 175 132 120 182
260 180 141 111 98 112 134 145 156 184 207 235 265 294 332 322 285 235 207 198 159 142
336 293 207 172 152 144 148 164 181 183 206 231 284 337 377 383 320 333 304 257 236 207
263 330 301 256 211 185 172 179 203 210 217 237 246 308 382 435 351 324 348 368 319 287
203 263 330 300 255 224 203 197 203 214 237 248 219 247 338 446 386 332 352 345 374 371
196 211 247 283 283 264 222 181 176 165 171 170 180 181 254 380 411 426 399 416 437 457

GFSNIL_con_3kmhel_042.txt.gz
Helicity
93 26 1 -15 8 32 51 44 56 70 48 42 45 18 -1 -15 -18 -11 -14 -12 -6 1
98 51 21 -1 -16 5 42 51 58 98 97 63 63 44 14 -6 -19 -15 -12 -19 -24 -23
136 99 44 9 -7 -6 17 52 57 87 100 76 74 72 64 14 -19 -15 -23 -20 -19 -26
101 67 71 25 18 7 1 42 62 82 101 87 92 92 90 68 35 17 -1 -5 -2 -18
81 60 55 54 12 12 -0 -2 64 99 98 114 121 125 138 118 90 64 31 24 22 22
98 87 60 66 56 26 11 -7 -23 27 98 150 157 152 123 111 118 113 82 57 53 45
125 122 102 84 75 53 36 19 16 45 98 134 160 163 150 140 123 103 99 93 72 45
142 144 132 111 92 83 62 41 50 68 80 118 139 157 173 183 177 154 119 107 120 101
179 165 165 147 120 106 103 94 64 88 103 146 162 212 273 263 238 225 202 176 157 149
177 165 163 169 153 138 136 117 121 105 114 154 190 235 298 356 321 297 288 272 238 213
144 135 117 129 132 136 124 122 121 119 125 115 144 205 262 314 301 256 265 274 272 249
240 220 178 159 138 103 89 81 93 98 109 135 129 147 196 207 179 184 210 220 230 253
340 284 266 238 219 219 168 118 89 67 75 106 112 133 173 197 163 132 169 195 231 294
354 367 281 289 307 287 268 239 188 118 91 93 112 142 163 175 170 163 156 161 177 212

GFSNIL_con_3kmhel_045.txt.gz
Helicity
88 55 22 22 1 -13 4 7 19 31 20 26 12 -11 -19 -22 -22 -7 -1 0 11 16
111 78 27 14 17 -11 -8 7 15 38 41 19 18 4 -8 -19 -25 -13 -13 -10 -13 -2
135 105 59 31 33 20 -3 -4 7 33 37 44 38 23 15 -7 -35 -23 -31 -24 -22 -18
111 70 52 34 22 20 11 -1 -6 13 30 43 54 41 35 17 7 -5 -28 -35 -21 -18
107 91 51 46 32 29 11 7 4 18 23 32 46 64 56 39 24 23 1 -21 -34 -32
96 73 61 42 54 43 28 34 11 -6 10 19 24 45 64 64 65 68 45 32 7 -12
123 100 85 80 59 54 54 36 15 5 12 7 12 16 34 74 93 95 76 63 52 26
140 131 90 56 68 78 64 65 66 42 19 20 28 29 49 59 76 86 94 87 94 84
171 147 100 72 70 85 77 64 67 70 63 57 57 54 109 101 96 94 91 98 102 108
144 119 103 97 92 86 90 86 91 83 93 105 119 129 161 187 138 125 137 138 127 119
172 141 119 112 118 107 110 118 104 85 90 95 86 123 188 215 194 148 171 188 192 187
151 158 129 125 132 144 124 108 105 105 93 101 103 135 157 185 173 153 161 177 198 220
180 190 191 176 129 119 97 81 104 59 55 73 78 108 150 181 134 81 90 101 132 183
159 180 191 187 177 181 202 191 103 63 53 68 85 95 135 161 128 100 92 105 129 159

GFSNIL_con_3kmhel_048.txt.gz
Helicity
55 39 44 50 49 47 70 46 0 2 1 2 -9 -21 -21 -23 -12 -4 -6 1 -3 -14
50 55 32 40 28 22 31 9 -27 -16 3 3 -2 -5 -15 -22 -15 -7 -4 8 -2 -6
82 74 62 42 30 9 6 -6 -29 -32 -17 -11 -1 -3 -5 -25 -41 -24 -20 -12 -9 3
174 164 63 63 44 26 -2 9 -3 -14 -7 -6 -1 6 4 -20 -33 -31 -39 -40 -37 -7
214 209 104 122 62 24 11 9 33 21 -3 -20 -17 -2 21 9 -16 -20 -38 -32 -42 -14
194 213 140 112 85 47 13 5 43 33 19 -5 -24 -20 -2 14 27 6 -10 -17 -20 -7
192 192 122 216 89 49 51 36 29 43 32 12 -9 -24 -22 -13 3 20 10 0 0 0
241 248 230 152 98 76 70 60 42 44 28 20 -1 -30 -25 -21 -11 -1 11 27 38 29
246 257 222 183 139 114 88 62 42 35 44 49 35 12 26 17 -3 3 9 14 23 29
208 191 174 161 153 91 77 91 58 56 58 58 72 77 82 88 37 10 11 20 14 8
182 155 141 137 126 78 71 65 62 62 75 69 59 89 117 132 89 49 47 50 52 60
173 149 145 129 113 109 91 51 73 74 72 85 63 80 106 115 101 75 79 84 88 107
176 180 186 177 157 147 129 82 81 55 77 99 82 95 126 135 77 52 45 68 94 121
152 146 126 111 111 123 119 115 109 117 121 66 91 81 102 139 128 83 58 60 45 80